Flag for Canada Weather past 2 weeks in Cambridge, Ontario, Canada

Now
36 °F

Clear.


Feels Like: 29 °F
Forecast: 32 / 57 °F
Wind: 8 mph from Southeast

Location: Waterloo Well

Current Time: Apr 1, 2015 at 9:50:43 PM

Latest Report: Apr 1, 2015 at 9:00 PM


Visibility: 9 mi

Pressure: 30.10 "Hg

Humidity: 75%

Dew point: 28 °F

Location of CambridgeLocation

Historic Weather in Cambridge — Graph

°F

Cambridge temperature yesterday

Maximum temperature yesterday: 43 °F (at 3:00 PM)
Minimum temperature yesterday: 23 °F (at 3:00 AM)
Average temperature yesterday: 32 °F

Past Weeks' High & Low Weather Summary

 TemperatureHumidityPressure
High77 °F (Mar 24, 1:00 PM)100% (Mar 21, 8:00 AM)30.40 "Hg (Mar 21, 8:00 AM)
Low10 °F (Mar 28, 5:00 AM)5% (Mar 24, 1:00 PM)29.59 "Hg (Mar 30, 3:45 AM)
Average31 °F68%30.03 "Hg
* Reported Mar 17 8:00 PM — Apr 1 8:00 PM, Cambridge, Weather by CustomWeather, © 2015

Note: Actual official high and low records may vary slightly from our data, if they occured in-between our weather recording intervals... More about our weather records

Advertising

Cambridge weather history for previous 24 hours

 ConditionsComfort  
Time TempWeatherWind HumidityBarometerVisibility
8:00 PM
Wed, Apr 1
39 °FSunny.7 mph65%30.10 "Hg9 mi
7:00 PM43 °FSunny.9 mph57%30.12 "Hg9 mi
6:00 PM46 °FSunny.10 mph46%30.12 "Hg9 mi
5:00 PM46 °FSunny.6 mph40%30.13 "Hg9 mi
4:00 PM46 °FSunny.12 mph34%30.15 "Hg9 mi
3:00 PM45 °FSunny.7 mph31%30.16 "Hg9 mi
2:00 PM43 °FSunny.9 mph31%30.16 "Hg9 mi
1:00 PM41 °FSunny.7 mph31%30.16 "Hg9 mi
12:00 PM39 °FSunny.7 mph28%30.16 "Hg9 mi
11:00 AM37 °FSunny.8 mph30%30.16 "Hg9 mi
10:00 AM36 °FSunny.6 mph35%30.14 "Hg9 mi
9:00 AM30 °FPassing clouds.6 mph59%30.14 "Hg9 mi
8:00 AM27 °FClear.2 mph74%30.13 "Hg9 mi
7:00 AM25 °FClear.6 mph86%30.11 "Hg9 mi
6:00 AM21 °FClear.2 mph93%30.07 "Hg9 mi
5:00 AM25 °FClear.2 mph86%30.05 "Hg9 mi
4:00 AM25 °FPassing clouds.3 mph93%30.02 "Hg9 mi
3:00 AM27 °FPassing clouds.2 mph86%30.01 "Hg9 mi
2:00 AM27 °FClear.5 mph86%30.00 "Hg9 mi
1:00 AM28 °FPassing clouds.5 mph80%29.99 "Hg9 mi
12:00 AM28 °FPassing clouds.6 mph80%29.99 "Hg9 mi
11:00 PM
Tue, Mar 31
28 °FPassing clouds.6 mph74%29.98 "Hg9 mi
10:00 PM30 °FPassing clouds.7 mph69%29.97 "Hg9 mi
9:00 PM32 °FPassing clouds.7 mph69%29.95 "Hg9 mi
Weather by CustomWeather, © 2015

See weather overviewHow to use our weather pages